FW8729 Weather Reports


time (UTC)temp
F
wind
direction
speed
knots
gust
knots
rain 1hr
in
rain 24hr
in
rain mn
in
humidity
%
barometer
mb
20260507052544 57 132 0.0 1.7 0.00 0.00 0.00 89 1017.7
20260507052040 57 132 0.0 1.7 0.00 0.00 0.00 89 1017.7
20260507051552 57 0 0.0 1.7 0.00 0.00 0.00 89 1017.7
20260507051041 57 132 0.0 1.7 0.00 0.00 0.00 89 1017.6
20260507050540 58 132 0.0 2.6 0.00 0.00 0.00 89 1017.6
20260507050050 58 132 0.0 2.6 0.00 0.00 0.00 89 1017.5
20260507045542 58 0 0.9 2.6 0.00 0.00 0.00 89 1017.5
20260507045039 58 0 0.0 1.7 0.00 0.00 0.00 89 1017.5
20260507044601 58 0 0.0 0.0 0.00 0.00 0.00 89 1017.5
20260507044040 58 0 0.0 0.0 0.00 0.00 0.00 89 1017.5
20260507043540 58 0 0.0 0.0 0.00 0.00 0.00 89 1017.5
20260507043104 58 0 0.0 0.0 0.00 0.00 0.00 89 1017.5
20260507042541 58 0 0.0 0.0 0.00 0.00 0.00 89 1017.5
20260507042044 58 0 0.0 2.6 0.00 0.00 0.00 89 1017.4
20260507041554 58 0 0.0 2.6 0.00 0.00 0.00 89 1017.4
20260507041041 58 132 0.9 2.6 0.00 0.00 0.00 88 1017.4
20260507040540 59 0 0.0 2.6 0.00 0.00 0.00 88 1017.3
20260507040051 59 131 0.9 2.6 0.00 0.00 0.00 88 1017.2
20260507035539 59 150 0.9 2.6 0.00 0.00 0.00 88 1017.2
20260507035039 59 150 0.0 3.5 0.00 0.00 0.00 87 1017.2
20260507034551 59 150 0.9 4.3 0.00 0.00 0.00 87 1017.1
20260507034040 59 148 2.6 4.3 0.00 0.00 0.00 87 1017.0
20260507033540 59 153 0.9 4.3 0.00 0.00 0.00 86 1016.9
20260507033052 60 153 0.9 4.3 0.00 0.00 0.00 86 1016.9
20260507032540 60 111 0.9 4.3 0.00 0.00 0.00 86 1016.8
20260507032039 60 136 0.9 2.6 0.00 0.00 0.00 85 1016.8
20260507031549 60 0 0.0 3.5 0.00 0.00 0.00 85 1016.7
20260507031039 60 0 0.0 3.5 0.00 0.00 0.00 85 1016.6
20260507030539 60 191 0.9 5.2 0.00 0.00 0.00 84 1016.5
20260507030049 60 188 1.7 5.2 0.00 0.00 0.00 84 1016.4
20260507025540 60 209 2.6 5.2 0.00 0.00 0.00 84 1016.5
20260507025040 60 174 1.7 6.1 0.00 0.00 0.00 84 1016.5
20260507024553 60 211 1.7 7.0 0.00 0.00 0.00 83 1016.5
20260507024040 61 217 2.6 7.0 0.00 0.00 0.00 82 1016.4
20260507023540 61 215 4.3 6.1 0.00 0.00 0.00 81 1016.4
20260507023103 61 165 3.5 6.1 0.00 0.00 0.00 79 1016.3
20260507022540 62 205 2.6 7.0 0.00 0.00 0.00 78 1016.3
20260507022040 62 217 3.5 7.0 0.00 0.00 0.00 78 1016.3
20260507021550 62 186 2.6 6.1 0.00 0.00 0.00 78 1016.3
20260507021040 62 172 2.6 6.1 0.00 0.00 0.00 78 1016.2
20260507020540 62 203 3.5 7.0 0.00 0.00 0.00 79 1016.2
20260507020057 62 232 3.5 7.0 0.00 0.00 0.00 79 1016.2
20260507015539 62 201 2.6 8.7 0.00 0.00 0.00 79 1016.2
20260507015040 62 182 5.2 8.7 0.00 0.00 0.00 79 1016.2
20260507014553 62 200 4.3 10.4 0.00 0.00 0.00 79 1016.2
20260507014040 63 177 5.2 10.4 0.00 0.00 0.00 78 1016.1
20260507013541 63 189 4.3 8.7 0.00 0.00 0.00 77 1016.1
20260507013045 63 197 5.2 8.7 0.00 0.00 0.00 76 1016.1
20260507012546 64 181 5.2 8.7 0.00 0.00 0.00 74 1016.2
20260507012040 64 195 4.3 7.8 0.00 0.00 0.00 73 1016.1
20260507011550 65 180 4.3 8.7 0.00 0.00 0.00 73 1016.1
20260507011039 65 191 3.5 8.7 0.00 0.00 0.00 72 1016.1
20260507010540 65 230 4.3 8.7 0.00 0.00 0.00 71 1016.1
20260507010050 65 225 4.3 9.6 0.00 0.00 0.00 72 1016.3
20260507005540 65 207 5.2 9.6 0.00 0.00 0.00 71 1016.2
20260507005040 65 189 4.3 12.2 0.00 0.00 0.00 70 1016.2
20260507004551 65 236 4.3 12.2 0.00 0.00 0.00 71 1016.3
20260507004039 64 183 5.2 12.2 0.00 0.00 0.00 70 1016.3
20260507003541 65 177 5.2 12.2 0.00 0.00 0.00 71 1016.3
20260507003103 64 276 6.1 13.9 0.00 0.00 0.00 71 1016.2
20260507002545 64 243 6.1 13.9 0.00 0.00 0.00 70 1016.3
20260507002042 64 248 7.0 13.9 0.00 0.00 0.00 68 1016.3
20260507001611 65 242 7.0 13.0 0.00 0.00 0.00 68 1016.4
20260507001041 65 245 7.8 13.0 0.00 0.00 0.00 67 1016.3
20260507000543 65 202 7.8 14.8 0.00 0.00 0.00 67 1016.3
20260507000052 65 206 7.0 14.8 0.00 0.00 0.00 67 1016.3
20260506235540 65 216 6.1 12.2 0.00 0.00 0.00 68 1016.3
20260506235040 65 210 7.0 13.0 0.00 0.00 0.00 67 1016.4
20260506234554 65 241 7.8 16.5 0.00 0.00 0.00 67 1016.2
20260506234040 65 227 8.7 16.5 0.00 0.00 0.00 67 1016.3
20260506233540 66 244 7.0 13.9 0.00 0.00 0.00 65 1016.3
20260506233050 66 258 5.2 14.8 0.00 0.00 0.00 66 1016.2
20260506232539 65 223 7.0 14.8 0.00 0.00 0.00 69 1016.3
20260506232040 65 257 7.0 14.8 0.00 0.00 0.00 68 1016.3
20260506231554 65 221 7.8 13.9 0.00 0.00 0.00 69 1016.4
20260506231040 64 254 9.6 14.8 0.00 0.00 0.00 69 1016.4
20260506230540 65 209 7.0 16.5 0.00 0.00 0.00 69 1016.4
20260506230058 66 254 7.0 16.5 0.00 0.00 0.00 68 1016.4
20260506225540 66 209 7.0 16.5 0.00 0.00 0.00 68 1016.5
20260506225040 66 225 5.2 12.2 0.00 0.00 0.00 69 1016.6
20260506224548 65 183 6.1 12.2 0.00 0.00 0.00 70 1016.7
20260506224039 65 180 7.0 12.2 0.00 0.00 0.00 71 1016.8
20260506223541 65 230 7.0 15.6 0.00 0.00 0.00 71 1016.8
20260506223055 65 188 7.8 15.6 0.00 0.00 0.00 70 1016.9
20260506222540 65 232 6.1 12.2 0.00 0.00 0.00 68 1017.2
20260506222040 65 209 5.2 12.2 0.00 0.00 0.00 71 1017.2
20260506221605 65 184 6.1 12.2 0.00 0.00 0.00 70 1017.3
20260506221039 66 222 7.0 12.2 0.00 0.00 0.00 72 1017.3
20260506220539 65 288 7.8 12.2 0.00 0.00 0.00 69 1017.3
20260506220051 66 257 6.1 13.0 0.00 0.00 0.00 70 1017.4
20260506215542 65 240 7.0 13.0 0.00 0.00 0.00 69 1017.5
20260506215040 66 226 5.2 13.9 0.00 0.00 0.00 71 1017.6
20260506214555 65 219 7.0 13.9 0.00 0.00 0.00 71 1017.6
20260506214040 65 196 7.0 13.0 0.00 0.00 0.00 71 1017.7
20260506213540 65 252 7.8 13.0 0.00 0.00 0.00 72 1017.8
20260506213103 65 211 7.0 13.9 0.00 0.00 0.00 72 1017.8
20260506212540 65 190 7.0 13.9 0.00 0.00 0.00 70 1017.8
20260506212040 65 212 7.0 13.9 0.00 0.00 0.00 70 1017.8
20260506211548 65 230 6.1 13.9 0.00 0.00 0.00 70 1017.8
20260506211039 66 202 5.2 13.0 0.00 0.00 0.00 68 1017.9
20260506210540 65 194 5.2 13.0 0.00 0.00 0.00 69 1018.0
20260506210056 66 218 5.2 11.3 0.00 0.00 0.00 68 1018.0
20260506205541 66 240 6.1 12.2 0.00 0.00 0.00 66 1018.1
20260506205039 66 259 7.0 12.2 0.00 0.00 0.00 66 1018.1
20260506204547 66 219 5.2 9.6 0.00 0.00 0.00 65 1018.1
20260506204038 67 236 3.5 10.4 0.00 0.00 0.00 67 1018.0
20260506203540 66 211 4.3 11.3 0.00 0.00 0.00 67 1018.0
20260506203049 66 269 5.2 11.3 0.00 0.00 0.00 68 1018.1
20260506202541 66 201 5.2 13.0 0.00 0.00 0.00 70 1018.1
20260506202040 65 176 5.2 13.0 0.00 0.00 0.00 70 1018.2
20260506201549 65 186 6.1 10.4 0.00 0.00 0.00 69 1018.2
20260506201040 65 157 5.2 12.2 0.00 0.00 0.00 70 1018.3
20260506200548 65 217 6.1 12.2 0.00 0.00 0.00 68 1018.3
20260506200056 66 214 4.3 10.4 0.00 0.00 0.00 69 1018.3
20260506195541 66 232 4.3 10.4 0.00 0.00 0.00 69 1018.4
20260506195041 66 169 4.3 12.2 0.00 0.00 0.00 70 1018.3
20260506194554 65 222 3.5 12.2 0.00 0.00 0.00 72 1018.3
20260506194040 65 193 6.1 12.2 0.00 0.00 0.00 72 1018.4
20260506193543 65 209 5.2 11.3 0.00 0.00 0.00 71 1018.4
20260506193101 65 209 7.0 11.3 0.00 0.00 0.00 72 1018.5
20260506192540 65 202 5.2 12.2 0.00 0.00 0.00 72 1018.5
20260506192040 65 188 6.1 12.2 0.00 0.00 0.00 73 1018.5
20260506191555 64 218 5.2 12.2 0.00 0.00 0.00 73 1018.5
20260506191042 65 163 7.8 11.3 0.00 0.00 0.00 72 1018.5
20260506190538 65 213 4.3 11.3 0.00 0.00 0.00 73 1018.4
20260506190054 65 214 5.2 9.6 0.00 0.00 0.00 71 1018.5
20260506185537 65 213 3.5 9.6 0.00 0.00 0.00 72 1018.5
20260506185040 65 211 4.3 10.4 0.00 0.00 0.00 72 1018.6
20260506184557 64 208 4.3 11.3 0.00 0.00 0.00 74 1018.5
20260506184043 64 146 6.1 11.3 0.00 0.00 0.00 74 1018.6
20260506183544 63 216 7.0 13.0 0.00 0.00 0.00 74 1018.6
20260506183053 64 190 7.0 13.0 0.00 0.00 0.00 75 1018.7
20260506182541 64 205 6.1 12.2 0.00 0.00 0.00 74 1018.6
20260506182042 64 218 5.2 11.3 0.00 0.00 0.00 75 1018.6
20260506181555 64 194 7.0 11.3 0.00 0.00 0.00 75 1018.7
20260506181040 64 215 4.3 11.3 0.00 0.00 0.00 74 1018.7
20260506180543 65 205 6.1 10.4 0.00 0.00 0.00 74 1018.7
20260506180053 65 219 4.3 11.3 0.00 0.00 0.00 74 1018.6
20260506175540 64 178 6.1 11.3 0.00 0.00 0.00 73 1018.7
20260506175040 65 167 4.3 8.7 0.00 0.00 0.00 72 1018.7
20260506174556 65 228 3.5 7.8 0.00 0.00 0.00 72 1018.6
20260506174040 64 232 3.5 8.7 0.00 0.00 0.00 71 1018.6
20260506173540 64 238 4.3 8.7 0.00 0.00 0.00 72 1018.7
20260506173059 64 190 4.3 8.7 0.00 0.00 0.00 72 1018.7
20260506172541 64 207 2.6 9.6 0.00 0.00 0.00 72 1018.6
20260506172041 64 215 5.2 9.6 0.00 0.00 0.00 71 1018.7
20260506171551 64 254 3.5 7.8 0.00 0.00 0.00 71 1018.6
20260506171040 64 256 1.7 9.6 0.00 0.00 0.00 71 1018.5
20260506170541 63 183 3.5 9.6 0.00 0.00 0.00 72 1018.5
20260506170054 63 176 4.3 7.8 0.00 0.00 0.00 72 1018.6
20260506165543 63 215 1.7 8.7 0.00 0.00 0.00 73 1018.6
20260506165040 63 170 2.6 8.7 0.00 0.00 0.00 74 1018.6
20260506164611 63 181 3.5 7.8 0.00 0.00 0.00 73 1018.7
20260506164039 63 228 3.5 7.8 0.00 0.00 0.00 74 1018.6
20260506163540 62 171 2.6 7.0 0.00 0.00 0.00 74 1018.7
20260506163056 62 195 1.7 6.1 0.00 0.00 0.00 73 1018.7
20260506162543 62 173 3.5 6.1 0.00 0.00 0.00 73 1018.7
20260506162042 62 172 2.6 5.2 0.00 0.00 0.00 73 1018.6
20260506161553 62 219 1.7 5.2 0.00 0.00 0.00 73 1018.7
20260506161040 62 0 1.7 4.3 0.00 0.00 0.00 73 1018.7
20260506160542 62 193 2.6 4.3 0.00 0.00 0.00 72 1018.7
20260506155540 61 0 0.9 5.2 0.00 0.00 0.00 73 1018.6
20260506155040 61 84 0.0 3.5 0.00 0.00 0.00 73 1018.6
20260506154554 60 5 0.9 4.3 0.00 0.00 0.00 73 1018.6
20260506154040 60 42 1.7 6.1 0.00 0.00 0.00 74 1018.6
20260506153544 59 360 2.6 6.1 0.00 0.00 0.00 74 1018.5
20260506153050 59 13 3.5 6.1 0.00 0.00 0.00 75 1018.6
20260506152540 59 48 2.6 7.8 0.00 0.00 0.00 76 1018.6
20260506152043 58 15 1.7 7.8 0.00 0.00 0.00 77 1018.7
20260506151554 58 49 4.3 7.8 0.00 0.00 0.00 77 1018.7
20260506151048 57 5 3.5 8.7 0.00 0.00 0.00 78 1018.6
20260506150539 57 349 4.3 8.7 0.00 0.00 0.00 78 1018.7
20260506150103 57 355 2.6 8.7 0.00 0.00 0.00 79 1018.6
20260506145542 57 24 5.2 8.7 0.00 0.00 0.00 78 1018.6
20260506145040 56 30 2.6 8.7 0.00 0.00 0.00 80 1018.6
20260506144552 56 30 5.2 8.7 0.00 0.00 0.00 79 1018.7
20260506144040 56 36 3.5 8.7 0.00 0.00 0.00 80 1018.6
20260506143540 56 9 3.5 8.7 0.00 0.00 0.00 81 1018.5
20260506143100 55 40 3.5 8.7 0.00 0.00 0.00 82 1018.4
20260506142540 55 11 2.6 8.7 0.00 0.00 0.00 83 1018.5
20260506142039 54 9 4.3 7.8 0.00 0.00 0.00 84 1018.4
20260506141555 54 9 3.5 7.0 0.00 0.00 0.00 84 1018.4
20260506141040 53 29 2.6 7.0 0.00 0.00 0.00 85 1018.4
20260506140540 53 28 3.5 6.1 0.00 0.00 0.00 85 1018.4
20260506140051 52 12 2.6 5.2 0.00 0.00 0.00 86 1018.3
20260506135540 52 5 2.6 5.2 0.00 0.00 0.00 86 1018.4
20260506135039 52 40 2.6 5.2 0.00 0.00 0.00 86 1018.4
20260506134554 52 18 1.7 4.3 0.00 0.00 0.00 86 1018.3
20260506134042 52 42 1.7 4.3 0.00 0.00 0.00 86 1018.3
20260506133540 52 28 1.7 4.3 0.00 0.00 0.00 85 1018.3
20260506133107 52 61 1.7 4.3 0.00 0.00 0.00 85 1018.3
20260506132540 52 49 1.7 3.5 0.00 0.00 0.00 84 1018.3
20260506132043 53 59 1.7 4.3 0.00 0.00 0.00 84 1018.2
20260506131605 53 42 1.7 6.1 0.00 0.00 0.00 85 1018.2
20260506131042 53 19 2.6 6.1 0.00 0.00 0.00 85 1018.1
20260506130540 53 360 2.6 5.2 0.00 0.00 0.00 85 1018.1
20260506130044 53 341 0.9 4.3 0.00 0.00 0.00 86 1018.0
20260506125539 53 36 1.7 5.2 0.00 0.00 0.00 86 1018.0
20260506125039 53 30 2.6 6.1 0.00 0.00 0.00 86 1018.0
20260506124550 53 5 2.6 6.1 0.00 0.00 0.00 86 1017.9
20260506124039 53 20 1.7 3.5 0.00 0.00 0.00 86 1017.9
20260506123543 53 18 1.7 4.3 0.00 0.00 0.00 86 1017.9
20260506123050 53 360 2.6 5.2 0.00 0.00 0.00 86 1017.9
20260506122540 53 5 2.6 5.2 0.00 0.00 0.00 87 1017.7
20260506122041 53 352 2.6 5.2 0.00 0.00 0.00 87 1017.7
20260506121554 53 5 2.6 5.2 0.00 0.00 0.00 88 1017.6
20260506121040 52 360 1.7 4.3 0.00 0.00 0.00 87 1017.5
20260506120540 52 344 1.7 4.3 0.00 0.00 0.00 87 1017.6
20260506120100 53 343 0.9 4.3 0.00 0.00 0.00 87 1017.5
20260506115539 53 350 1.7 4.3 0.00 0.00 0.00 87 1017.6
20260506115040 53 360 2.6 4.3 0.00 0.00 0.00 87 1017.5
20260506114551 53 14 2.6 4.3 0.00 0.00 0.00 87 1017.6
20260506114044 53 12 2.6 6.1 0.00 0.00 0.00 87 1017.6
20260506113540 53 13 2.6 6.1 0.00 0.00 0.00 87 1017.5
20260506113051 53 10 3.5 6.1 0.00 0.00 0.00 87 1017.6
20260506112545 53 9 2.6 6.1 0.00 0.00 0.00 87 1017.6
20260506112040 53 351 2.6 6.1 0.00 0.00 0.00 87 1017.4
20260506111550 53 13 2.6 6.1 0.00 0.00 0.00 88 1017.4
20260506111040 53 19 2.6 5.2 0.00 0.00 0.00 88 1017.5
20260506110540 53 5 2.6 6.1 0.00 0.00 0.00 88 1017.6
20260506110058 53 16 2.6 6.1 0.00 0.00 0.00 88 1017.5
20260506105540 53 11 2.6 5.2 0.00 0.00 0.00 88 1017.6
20260506105042 53 355 1.7 3.5 0.00 0.00 0.00 88 1017.5
20260506104603 53 360 1.7 4.3 0.00 0.00 0.00 87 1017.5
20260506104040 53 360 1.7 4.3 0.00 0.00 0.00 88 1017.5
20260506103540 53 12 1.7 7.0 0.00 0.00 0.00 88 1017.4
20260506103050 53 43 2.6 7.0 0.00 0.00 0.00 88 1017.4
20260506102542 53 351 3.5 7.8 0.00 0.00 0.00 88 1017.3
20260506102042 53 9 4.3 7.8 0.00 0.00 0.00 89 1017.3
20260506101549 53 23 2.6 7.0 0.00 0.00 0.00 89 1017.4
20260506101041 53 35 3.5 7.0 0.00 0.00 0.00 89 1017.4
20260506100540 52 5 1.7 7.0 0.00 0.00 0.00 88 1017.4
20260506100058 53 49 1.7 7.8 0.00 0.00 0.00 88 1017.4
20260506095539 53 18 3.5 7.8 0.00 0.00 0.00 88 1017.4
20260506095041 53 22 2.6 6.1 0.00 0.00 0.00 87 1017.4
20260506094550 53 23 1.7 5.2 0.00 0.00 0.00 87 1017.4
20260506094040 54 54 1.7 4.3 0.00 0.00 0.00 87 1017.4
20260506093540 54 28 2.6 4.3 0.00 0.00 0.00 88 1017.6
20260506093051 54 5 1.7 5.2 0.00 0.00 0.00 88 1017.5
20260506092540 54 38 2.6 5.2 0.00 0.00 0.00 88 1017.7
20260506092040 54 335 1.7 4.3 0.00 0.00 0.00 88 1017.7
20260506091549 54 360 2.6 4.3 0.00 0.00 0.00 88 1017.7
20260506091040 54 12 0.9 3.5 0.00 0.00 0.00 88 1017.6
20260506090540 54 15 0.9 2.6 0.00 0.00 0.00 88 1017.7
20260506090048 54 24 0.0 2.6 0.00 0.00 0.00 88 1017.7
20260506085539 54 24 0.9 2.6 0.00 0.00 0.00 88 1017.7
20260506085039 54 24 0.0 3.5 0.00 0.00 0.00 88 1017.7
20260506084615 54 24 1.7 3.5 0.00 0.00 0.00 88 1017.9
20260506084039 54 355 1.7 3.5 0.00 0.00 0.00 88 1017.9
20260506083538 54 18 0.9 3.5 0.00 0.00 0.00 88 1017.8
20260506083049 54 18 0.9 2.6 0.00 0.00 0.00 88 1017.9
20260506082541 54 30 0.9 4.3 0.00 0.00 0.00 88 1017.8
20260506082039 54 31 0.9 6.1 0.00 0.00 0.00 88 1017.8
20260506081556 54 28 2.6 6.1 0.00 0.00 0.00 88 1017.8
20260506081040 54 360 0.9 4.3 0.00 0.00 0.00 88 1017.9
20260506080540 54 31 1.7 5.2 0.00 0.00 0.00 88 1018.0
20260506073047 54 32 0.9 4.3 0.00 0.00 0.00 88 1017.8
20260506072539 54 39 1.7 4.3 0.00 0.00 0.00 88 1017.8
20260506072039 54 5 1.7 3.5 0.00 0.00 0.00 88 1017.8
20260506071545 54 41 0.9 4.3 0.00 0.00 0.00 88 1017.8
20260506071039 54 41 0.9 4.3 0.00 0.00 0.00 88 1017.7
20260506070540 54 9 1.7 4.3 0.00 0.00 0.00 88 1017.7
20260506062039 55 9 2.6 4.3 0.00 0.00 0.00 87 1017.2
20260506061554 55 17 1.7 3.5 0.00 0.00 0.00 87 1017.1
20260506061039 55 19 0.9 3.5 0.00 0.00 0.00 87 1017.1
20260506060540 55 20 1.7 3.5 0.00 0.00 0.00 87 1017.1